Location: Saint-Maurice-d�Ard�che
(44.5216°N, 4.4002°E)
Time: 14:43:05
(UTC+00:00)

SPOT 5 - Pass Details

Date: 30 March 2020
Orbit: 624 x 814 km, 98.3° (Epoch: 27 May)

Event Time Altitude Azimuth Distance (km) Brightness Sun altitude
Exits shadow 20:44:20 24° 28° (NNE) 1,320 4.3 -26.5°
Drops below altitude 10° 20:46:32 10° 5° (N) 2,026 5.6 -26.8°
Sets 20:48:51 0° 356° (N) 2,927 6.6 -27.1°
